weather.gov     
National Weather Service

Regional Weather Roundup
NWS Homepage
This page is being discontinued on March 12, 2014.
The same data is available at this site. Please update your bookmarks.
Thank you, and we apologize for the inconvenience.
Please send an email to SR-SRH.Webmaster@noaa.gov with any concerns.


Current Version
Previous Version:    01  02  03  04  05  06  07  08  09  10  11  12  13  14  15  16  17  18  19  20  21  22  23  24  25  26  
[Printable]
097
ASUS41 KAKQ 271610
RWRAKQ

REGIONAL WEATHER ROUNDUP
NATIONAL WEATHER SERVICE WAKEFIELD VA
1100 AM EST THU NOV 27 2014

Note: "fair" indicates few or no clouds below 12,000 feet with no
significant weather and/or obstructions to visibility. * = Denotes
station may not report precipitation (e.g., rain,snow,etc.),
thunder or fog.

VAZ042-051-052>054-056-271700-
NORTHERN VIRGINIA

CITY           SKY/WX    TMP DP  RH WIND       PRES   REMARKS
WASH NATIONAL  PTSUNNY   44  34  67 N3        30.07S
DULLES         PTSUNNY   40  35  83 NW6       30.06S
FORT BELVOIR   CLOUDY    41  35  80 CALM      30.07F
QUANTICO       LGT RAIN  40  35  83 N8        30.08S
FREDERICKSBRG* LGT RAIN  40  40 100 CALM      30.06S
STAFFORD*      RAIN      41  41 100 CALM      30.10S
WARRENTON      CLOUDY    41  41 100 CALM      30.05F
CULPEPER*      DRIZZLE   41  37  87 CALM      30.07S
MANASSAS*      NOT AVBL
LEESBURG*      PTSUNNY   39  37  93 MISG      30.06F
WINCHESTER     CLOUDY    41  32  70 NW12G17   30.04F
FRONT ROYAL*   CLOUDY    32  32 100 CALM      30.05S VSB 1
LURAY*         FOG       34  34 100 CALM      30.05S VSB<1/4
$$

VAZ048-049-060>072-079>083-271700-
CENTRAL AND SOUTH CENTRAL VIRGINIA

CITY           SKY/WX    TMP DP  RH WIND       PRES   REMARKS
RICHMOND       LGT RAIN  43  39  86 CALM      30.05S FOG
CHESTERFIELD*  CLOUDY    43  32  65 NW5       30.06S
PETERSBURG*    LGT RAIN  44  42  95 S3        30.05F
HANOVER        CLOUDY    41  40  96 S3        30.06F
TAPPAHANNOCK*  CLOUDY    42  39  88 CALM      30.06F
QUINTON*       CLOUDY    41  40  96 MISG      30.05S
CHARLOTTSVILLE CLOUDY    41  36  82 VRB3      30.04R
GORDONSVILLE*  CLOUDY    39  37  94 NE3       30.04F
ORANGE*        CLOUDY    41  39  93 N5        30.06S
LOUISA*        CLOUDY    39  39 100 N3        30.03S
BUMPASS*       CLOUDY    39  37  94 CALM      30.04S
FARMVILLE*     CLOUDY    46  46  99 SW3       30.04S
CREWE*         CLOUDY    42  39  88 CALM      30.04S
FORT PICKETT*  CLOUDY    42  37  83 CALM      30.04S
CHASE CITY*    CLOUDY    43  43 100 MISG      30.05R
CLARKSVILLE*   CLOUDY    41  41 100 CALM      30.04S
SOUTH HILL*    CLOUDY    40  38  94 CALM      30.09F
LAWRENCEVILLE* CLOUDY    41  40  97 CALM      30.04F
$$

VAZ088>098-271700-
SOUTHEAST VIRGINIA

CITY           SKY/WX    TMP DP  RH WIND       PRES   REMARKS
NORFOLK        LGT RAIN  43  39  86 SW3       30.05F
VIRGINIA BEACH LGT RAIN  44  40  85 W5        30.04F
NORFOLK NAVAL  LGT RAIN  44  39  82 W5        30.06F
WEST POINT*    CLOUDY    45  42  89 SW5       30.07S
SALUDA*        CLOUDY    41  39  92 CALM      30.05F
NEWPORT NEWS   LGT RAIN  45  40  82 W6        30.05F
LANGLEY AFB    LGT RAIN  43  43 100 SW7       30.06F
FORT EUSTIS    DRIZZLE   42  42 100 SW5       30.04S
WILLIAMSBURG*  CLOUDY    45  43  93 W3        30.06F
HR EXEC AP*    CLOUDY    41  39  93 CALM      30.07F
FRANKLIN*      CLOUDY    41  41 100 NW3       30.05F
WAKEFIELD      LGT RAIN  42  39  89 S3        30.06S FOG
$$

VAZ020-022-025-037-045-271700-
WEST CENTRAL AND SOUTHWEST VIRGINIA

CITY           SKY/WX    TMP DP  RH WIND       PRES   REMARKS
STAUNTON*      FOG       33  32  96 CALM      30.06R VSB 1/4
WAYNESBORO*    CLOUDY    35  33  92 CALM      30.03R
HOT SPRINGS VA   N/A    N/A N/A N/A MISG      29.93
LYNCHBURG      MOSUNNY   41  38  89 SW5       30.05R
DANVILLE       LGT RAIN  42  38  85 W3        30.07R
SOUTH BOSTON*  CLOUDY    41  40  93 NW5       30.07R
MARTINSVILLE   PTSUNNY   42  40  93 CALM      30.09R
ROANOKE        PTSUNNY   42  29  59 W8        30.08R
BLACKSBURG     CLOUDY    37  32  81 NW8G18    30.07R
DUBLIN*        CLOUDY    37  32  81 NW8       30.07R
MARION*        FLURRIES  34  28  80 W12G20    30.10R
HILLSVILLE*    CLOUDY    34  29  83 NW15      30.03R WCI  24
RICHLANDS*     LGT SNOW  33  31  94 NW7       30.11R
WISE*          FLURRIES  30  30 100 NW7       30.14R
ABINGDON*      FLURRIES  35  31  85 W3        30.14R
$$

MDZ021>025-VAZ099-100-271700-
SOUTHERN MARYLAND AND THE DELMARVA PENINSULA

CITY           SKY/WX    TMP DP  RH WIND       PRES   REMARKS
PATUXENT RIVER CLOUDY    42  33  70 NW6       30.06S
BAY BRIDGE APT   N/A     37  30  75 CALM      30.07S
LEONARDTOWN    CLOUDY    39  32  75 CALM      30.07S
DOVER          PTSUNNY   40  33  75 W8        30.03F
GEORGETOWN     PTSUNNY   44  32  62 NW6       30.05S
EASTON         CLOUDY    41  34  75 N5        30.09F
CAMBRIDGE      MOSUNNY   41  32  70 N6        30.05S
SALISBURY      PTSUNNY   45  33  63 NW7       30.05S
OCEAN CITY     MOSUNNY   44  34  67 N7        30.05S
WALLOPS ISLAND CLOUDY    43  36  76 NW6       30.06S
ACCOMACK*      CLOUDY    43  36  75 CALM      30.05F
$$

NCZ012>017-030>032-271700-
NORTH CENTRAL AND EASTERN NORTH CAROLINA

CITY           SKY/WX    TMP DP  RH WIND       PRES   REMARKS
ROANOKE RAPIDS RAIN      41  39  93 N6        30.04S
RALEIGH        LGT RAIN  44  39  82 NW3       30.05R
ELIZABETH CITY PTSUNNY   50  43  77 VRB5      30.04F
AHOSKIE*       PTSUNNY   42  40  92 N3        30.04F
EDENTON*       CLOUDY    46  39  77 SE3       30.03F
CURRITUCK*     LGT RAIN  46  40  80 CALM      30.05F
KILL DEVIL HLS CLOUDY    46  42  84 SE3       30.02F
MANTEO         CLOUDY    47  40  76 CALM      30.04F
CAPE HATTERAS  PTSUNNY   52  46  80 SE6       30.02F
TARBORO*       CLOUDY    47  41  79 N3        30.03F
GOLDSBORO      MOSUNNY   48  46  92 W9        29.99F
WASHINGTON     PTSUNNY   49  42  75 NE3       30.01F
GREENVILLE     MOSUNNY   46  41  81 E5        30.02F
NEW BERN       SUNNY     55  40  56 SW12      30.00F
WILMINGTON     SUNNY     53  38  56 W14G23    30.03F
$$

VAZ048-271700-
ELSEWHERE

CITY           SKY/WX    TMP DP  RH WIND       PRES   REMARKS
HARRISBURG PA  CLOUDY    35  28  75 NW9       30.05R
BALTIMORE      PTSUNNY   43  32  65 VRB5      30.04F
ANNAPOLIS      CLOUDY    40  32  73 CALM      30.06F
ANDREWS AFB    PTSUNNY   39  33  77 VRB2      30.05S
PHILADELPHIA   PTSUNNY   39  29  67 NW8       30.04F
WILDWOOD NJ*   CLOUDY    39  30  70 NW8       30.01F
HENDERSON NC   DRIZZLE   41  39  92 N3        30.04S
GREENSBORO     LGT RAIN  38  36  92 NW3       30.06R FOG
ROCKY MOUNT    PTSUNNY   47  41  80 CALM      30.02F
$$

VAZ100-271700-
MARINE

STATION/POSITION TIME  TEMP    WIND        PRES    WAVE   SWELL
                       AIR SEA DIR/SP/G            HT/PER HT/PER
                 (UTC) (F)     (DEG/KT/KT) (MB)    (FT/S) (FT/S)
CAPE MAY NJ      1600   41 49  320/  4/ 10 1016.8S
LEWES DE         1600   40 47  320/ 10/ 13 1017.1F
15NM E FENWICK I 1600   41 54              1017.0R   5/ 9
OCEAN-CITY-INLET 1600   42 48  340/  5/  7 1017.2S
WACHAPREAGUE VA  1600   43 47  260/  3/  4 1017.7F
THOMAS POINT MD  1600   38 47  310/  3/  4 1019.1F
GOOSES REEF MD   1600   39 47   10/  8/ 12 1018.4F   1/ 2
COVE POINT MD    1600   39     350/  9/ 10 1017.9S
SOLOMONS ISLAND  1600      49                N/A
BISHOPS HEAD MD  1600   41 44  290/  4/  6 1017.4F
PINEY POINT MD   1600          360/  4/  5   N/A
POTOMAC MD       1600   42 49  310/  2/  4 1016.9F   0
CAMBRIDGE MD     1600   40 45  330/  5/  6 1017.7F
LEWISETTA VA     1600   42 47   CALM  /  2 1017.5F
RAPPAHANNOCK LGT 1600          260/  5/  6 1017.8F
STINGRAY PT      1600   43 49  280/  4/  4 1018.0F   0
YORK RVR RNG VA  1600   43     250/  8/  9 1017.2S
YORKTOWN VA      1600   42 51  240/  6/  8 1017.4S
JAMESTOWN VA     1600   41 49  300/  4/  6   N/A     0
DOMINION TERM VA 1600   42     260/  6/  7 1017.9R
KIPTOPEKE VA     1600      54  270/  7/  9   N/A
CHES BAY BRIDGE  1600   42 52  230/  6/  7 1017.2R
CAPE HENRY VA    1600   42     240/  4/  5 1016.2S
CHESAPEAKE LGHT  1500   45     200/  5/  6 1018.4F
WILLOUBY STN VA  1600   42     250/  8/  9 1016.4R
S CRANEY ISL VA  1600          220/  3/  4 1017.6S
CAPE HENRY BUOY  1500      56                N/A     4/ 8   2/11
1ST LANDING BUOY 1600   43 51  260/  6/  8 1017.1R   2/ 6
CAPE CHARLES BUO 1600      55                N/A     3/ 9   3/ 9
64NM E OF VA BCH 1600   49 62  250/  2/  6 1016.9F   6/ 9   7/ 9
DUCK PIER NC     1600   46 54  130/  6/  8 1016.4F
44100 DUCK FRF   1600      58                N/A     5/ 9   2/11
44056 DUCK FRF   1600      56                N/A     4/10   2/11
OREGON INLET NC  1600   47 56  100/  5/  8 1017.3F
HATTERAS NC      1600   53 58  110/  3/  6 1017.2F
DIAMOND SHLS NC  1600   58     240/ 12/ 16 1016.3F   5/ 8   5/ 8
CAPE LOOKOUT NC  1500   57     220/  7/ 10 1016.3F




U.S. Dept. of Commerce
NOAA National Weather Service
1325 East West Highway
Silver Spring, MD 20910
E-mail: w-nws.webmaster@noaa.gov
Page last modified: May 16, 2007
NATIONAL WEATHER SERVICE: for Safety, for Work, for Fun - FOR LIFE